EOS-01

operational
NORAD ID: 46905 Int'l Des: 2020-081 Owner: ISRO Country: IN
LEOCIRCULAR

About EOS-01

Description loading...

Live Position

Loading 3D Globe...

Upcoming Passes

Altitude History

Altitude vs Time

uPlot chart will show altitude changes over time

Two-Line Element Set

1 46905U 20081A 26101.91188851 .00002542 00000-0 19973-3 0 9991
2 46905 36.8984 257.7420 0011908 335.9657 24.0527 15.01264061297507
Epoch: Apr 11, 2026 • Age: 8 hours

Current Status

Altitude 554.5 km
Velocity 7.59 km/s
Sub-Earth Point -1.39°S, 34.37°W
Launch Date Nov 7, 2020
Age 5.4 years
Type other

Technical Details

Classification Payload
Mass 628.00 kg
Dry Mass 628.00 kg
Total Mass 628.00 kg
Length 2.00 m
Diameter 1.00 m
Span 5.00 m
Shape Hex Cyl + 2 Pan + Dish
Manufacturer ISRO
Bus Type TechSar
Phase Status In Orbit
Owner/State ISRO/IN

Large Constellations

Loading constellations...